QPF
0.00 0.00 0.00 0.00 0.00 0.00 0.00 0.00 0.00 0.00 0.00 0.00 0.00 0.00 0.00 0.00 0.00 0.00 0.00 0.00 0.00 0.00 0.00 0.00 0.00 0.00 0.00 0.00 0.00 0.00 0.00 0.00 0.00 0.00 0.00 0.00 0.00 0.00 0.00 0.00 0.00 0.00 0.00 0.00 0.00 0.00 0.00 0.00 0.00 0.00 0.01 0.01 0.03 0.01
0.00 0.00 0.00 0.00 0.00 0.00 0.00 0.00 0.00 0.00 0.00 0.00 0.00 0.00 0.00 0.00 0.00 0.00 0.00 0.00 0.00 0.00 0.00 0.00 0.00 0.00 0.00 0.00 0.00 0.00 0.00 0.00 0.00 0.00 0.00 0.00 0.00 0.00 0.00 0.00 0.00 0.00 0.00 0.00 0.00 0.00 0.00 0.00 0.00 0.00 0.01 0.01 0.01 0.00
0.00 0.00 0.00 0.00 0.00 0.00 0.00 0.00 0.00 0.00 0.00 0.00 0.00 0.00 0.00 0.00 0.00 0.00 0.00 0.00 0.00 0.00 0.00 0.00 0.00 0.00 0.00 0.00 0.00 0.01 0.00 0.00 0.00 0.00 0.00 0.00 0.00 0.00 0.00 0.00 0.00 0.00 0.00 0.00 0.00 0.00 0.00 0.00 0.00 0.00 0.00 0.01 0.05 0.02
0.00 0.00 0.00 0.00 0.00 0.00 0.00 0.00 0.00 0.00 0.00 0.00 0.00 0.00 0.00 0.00 0.00 0.00 0.00 0.01 0.01 0.00 0.00 0.00 0.00 0.00 0.00 0.00 0.00 0.02 0.03 0.00 0.00 0.00 0.00 0.00 0.00 0.00 0.00 0.00 0.00 0.00 0.00 0.00 0.00 0.00 0.00 0.00 0.00 0.00 0.00 0.00 0.00 0.00
0.00 0.00 0.00 0.00 0.00 0.00 0.00 0.00 0.00 0.00 0.00 0.00 0.00 0.00 0.00 0.00 0.00 0.00 0.00 0.00 0.02 0.01 0.00 0.00 0.00 0.00 0.00 0.00 0.00 0.00 0.02 0.01 0.00 0.00 0.00 0.00 0.00 0.00 0.00 0.00 0.00 0.00 0.00 0.00 0.00 0.00 0.00 0.00 0.00 0.00 0.00 0.00 0.00 0.00
0.00 0.00 0.00 0.00 0.00 0.00 0.00 0.00 0.00 0.00 0.00 0.00 0.00 0.00 0.00 0.00 0.00 0.00 0.00 0.00 0.01 0.00 0.00 0.00 0.00 0.00 0.00 0.00 0.00 0.00 0.00 0.00 0.00 0.00 0.00 0.00 0.00 0.00 0.00 0.00 0.00 0.00 0.00 0.00 0.00 0.00 0.00 0.00 0.00 0.00 0.00 0.00 0.00 0.00
0.00 0.00 0.00 0.00 0.00 0.00 0.00 0.00 0.00 0.00 0.00 0.00 0.00 0.00 0.00 0.00 0.00 0.01 0.00 0.00 0.00 0.00 0.00 0.00 0.00 0.00 0.00 0.00 0.00 0.00 0.00 0.00 0.00 0.00 0.00 0.00 0.00 0.00 0.00 0.00 0.00 0.00 0.00 0.00 0.00 0.00 0.01 0.01 0.00 0.00 0.00 0.00 0.00 0.00
0.00 0.00 0.00 0.00 0.00 0.00 0.00 0.00 0.00 0.00 0.00 0.00 0.00 0.00 0.00 0.00 0.00 0.00 0.00 0.00 0.00 0.00 0.00 0.00 0.00 0.01 0.00 0.00 0.00 0.00 0.00 0.00 0.00 0.00 0.00 0.00 0.00 0.00 0.00 0.00 0.00 0.00 0.00 0.00 0.00 0.00 0.00 0.00 0.00 0.00 0.00 0.00 0.00 0.00
0.00 0.00 0.00 0.00 0.00 0.00 0.00 0.00 0.00 0.00 0.00 0.00 0.00 0.00 0.00 0.00 0.01 0.00 0.00 0.00 0.00 0.00 0.01 0.00 0.00 0.01 0.00 0.00 0.00 0.00 0.00 0.00 0.00 0.00 0.00 0.00 0.01 0.00 0.00 0.00 0.00 0.00 0.00 0.00 0.00 0.00 0.00 0.00 0.00 0.00 0.00 0.00 0.00 0.00
0.00 0.00 0.00 0.00 0.00 0.00 0.00 0.01 0.01 0.00 0.00 0.00 0.00 0.01 0.00 0.00 0.00 0.00 0.00 0.01 0.01 0.01 0.00 0.00 0.00 0.00 0.00 0.00 0.00 0.00 0.00 0.00 0.00 0.00 0.00 0.00 0.00 0.00 0.00 0.00 0.00 0.00 0.00 0.00 0.00 0.00 0.00 0.00 0.00 0.00 0.00 0.00 0.00 0.00
0.00 0.00 0.00 0.00 0.00 0.00 0.00 0.01 0.01 0.00 0.00 0.00 0.02 0.02 0.01 0.00 0.00 0.00 0.02 0.02 0.01 0.00 0.00 0.00 0.00 0.00 0.00 0.02 0.01 0.00 0.00 0.00 0.00 0.00 0.00 0.00 0.00 0.00 0.00 0.00 0.00 0.00 0.00 0.00 0.00 0.00 0.00 0.00 0.00 0.00 0.00 0.00 0.00 0.00
0.00 0.01 0.00 0.00 0.00 0.00 0.00 0.00 0.00 0.00 0.01 0.02 0.01 0.00 0.00 0.01 0.01 0.02 0.04 0.04 0.01 0.00 0.00 0.00 0.00 0.00 0.00 0.00 0.03 0.01 0.04 0.01 0.04 0.00 0.00 0.00 0.00 0.00 0.00 0.00 0.00 0.00 0.00 0.00 0.00 0.00 0.00 0.00 0.00 0.00 0.00 0.00 0.00 0.00
0.00 0.00 0.00 0.00 0.00 0.00 0.00 0.00 0.00 0.00 0.00 0.00 0.00 0.00 0.00 0.01 0.01 0.01 0.03 0.03 0.00 0.00 0.00 0.00 0.00 0.00 0.01 0.02 0.03 0.03 0.04 0.03 0.01 0.01 0.00 0.00 0.00 0.00 0.00 0.00 0.00 0.00 0.00 0.00 0.00 0.00 0.00 0.00 0.00 0.00 0.00 0.00 0.00 0.00
0.00 0.00 0.00 0.00 0.00 0.00 0.00 0.00 0.00 0.00 0.00 0.00 0.00 0.00 0.00 0.01 0.01 0.00 0.02 0.03 0.00 0.00 0.00 0.00 0.00 0.00 0.00 0.02 0.01 0.00 0.00 0.01 0.05 0.00 0.00 0.00 0.00 0.00 0.00 0.00 0.00 0.00 0.00 0.00 0.00 0.00 0.00 0.00 0.00 0.00 0.00 0.00 0.00 0.00
0.00 0.00 0.00 0.00 0.00 0.00 0.00 0.00 0.00 0.00 0.01 0.00 0.01 0.01 0.00 0.01 0.02 0.01 0.00 0.01 0.01 0.01 0.00 0.00 0.00 0.00 0.00 0.01 0.01 0.01 0.02 0.00 0.01 0.04 0.04 0.01 0.01 0.00 0.00 0.00 0.00 0.00 0.00 0.00 0.00 0.00 0.00 0.00 0.00 0.00 0.00 0.00 0.00 0.00
0.00 0.00 0.00 0.00 0.00 0.00 0.00 0.00 0.00 0.01 0.01 0.00 0.01 0.00 0.03 0.05 0.02 0.01 0.01 0.02 0.01 0.00 0.00 0.00 0.00 0.00 0.01 0.01 0.01 0.01 0.00 0.00 0.03 0.02 0.00 0.01 0.00 0.00 0.00 0.00 0.00 0.00 0.00 0.00 0.00 0.00 0.00 0.00 0.00 0.00 0.00 0.00 0.00 0.00
0.00 0.00 0.00 0.00 0.00 0.00 0.00 0.00 0.02 0.01 0.02 0.04 0.01 0.01 0.01 0.01 0.01 0.02 0.01 0.01 0.01 0.02 0.04 0.00 0.02 0.01 0.00 0.01 0.00 0.00 0.00 0.00 0.00 0.00 0.00 0.00 0.00 0.01 0.00 0.00 0.00 0.00 0.00 0.00 0.00 0.00 0.00 0.00 0.00 0.00 0.00 0.00 0.00 0.00
0.00 0.00 0.00 0.00 0.00 0.00 0.00 0.00 0.02 0.03 0.02 0.01 0.00 0.00 0.00 0.01 0.02 0.01 0.01 0.01 0.02 0.04 0.04 0.02 0.02 0.03 0.02 0.00 0.02 0.02 0.00 0.01 0.00 0.00 0.00 0.00 0.02 0.06 0.02 0.00 0.00 0.00 0.00 0.00 0.00 0.00 0.00 0.00 0.00 0.00 0.00 0.00 0.00 0.00
0.00 0.00 0.00 0.00 0.00 0.02 0.01 0.00 0.01 0.01 0.00 0.00 0.00 0.00 0.00 0.00 0.00 0.00 0.00 0.00 0.00 0.01 0.02 0.03 0.04 0.01 0.00 0.00 0.03 0.04 0.04 0.05 0.00 0.00 0.00 0.00 0.01 0.05 0.05 0.01 0.00 0.00 0.00 0.00 0.00 0.00 0.00 0.00 0.00 0.00 0.00 0.00 0.00 0.00
0.00 0.00 0.00 0.00 0.00 0.02 0.02 0.03 0.02 0.01 0.00 0.00 0.00 0.00 0.00 0.00 0.00 0.00 0.00 0.00 0.00 0.00 0.00 0.01 0.00 0.00 0.00 0.03 0.01 0.01 0.01 0.03 0.02 0.02 0.00 0.00 0.04 0.05 0.03 0.03 0.00 0.00 0.00 0.00 0.00 0.00 0.00 0.00 0.00 0.00 0.00 0.00 0.00 0.00
0.00 0.00 0.00 0.00 0.00 0.00 0.01 0.02 0.04 0.01 0.01 0.00 0.00 0.01 0.00 0.00 0.00 0.00 0.00 0.00 0.00 0.00 0.00 0.00 0.00 0.00 0.01 0.01 0.00 0.00 0.00 0.00 0.00 0.03 0.02 0.02 0.02 0.05 0.03 0.01 0.01 0.00 0.00 0.00 0.00 0.00 0.00 0.00 0.00 0.00 0.00 0.00 0.00 0.00
0.04 0.00 0.01 0.01 0.01 0.01 0.01 0.00 0.01 0.05 0.04 0.00 0.04 0.05 0.02 0.01 0.00 0.00 0.00 0.00 0.00 0.00 0.00 0.00 0.00 0.00 0.00 0.03 0.01 0.00 0.00 0.00 0.02 0.05 0.07 0.02 0.02 0.05 0.08 0.07 0.03 0.02 0.08 0.10 0.05 0.03 0.02 0.02 0.00 0.00 0.00 0.00 0.01 0.03
0.03 0.02 0.02 0.02 0.01 0.00 0.00 0.01 0.04 0.02 0.01 0.04 0.05 0.03 0.01 0.03 0.03 0.01 0.00 0.00 0.00 0.00 0.00 0.00 0.00 0.00 0.00 0.00 0.01 0.01 0.00 0.00 0.02 0.01 0.01 0.00 0.01 0.03 0.01 0.05 0.10 0.13 0.18 0.19 0.18 0.14 0.06 0.09 0.05 0.02 0.03 0.04 0.02 0.04
0.01 0.02 0.02 0.02 0.01 0.00 0.00 0.03 0.03 0.03 0.02 0.03 0.02 0.01 0.02 0.06 0.10 0.06 0.01 0.01 0.02 0.01 0.01 0.01 0.00 0.00 0.01 0.01 0.01 0.01 0.00 0.01 0.00 0.00 0.00 0.01 0.06 0.12 0.07 0.05 0.06 0.11 0.09 0.13 0.08 0.01 0.01 0.04 0.07 0.01 0.01 0.02 0.01 0.00
0.01 0.00 0.00 0.00 0.02 0.01 0.00 0.01 0.03 0.03 0.02 0.03 0.02 0.02 0.05 0.06 0.10 0.09 0.05 0.04 0.02 0.01 0.03 0.02 0.01 0.00 0.00 0.00 0.00 0.00 0.00 0.00 0.00 0.02 0.04 0.08 0.07 0.09 0.05 0.05 0.06 0.04 0.03 0.04 0.03 0.01 0.01 0.01 0.00 0.00 0.00 0.00 0.00 0.00
0.00 0.00 0.01 0.02 0.02 0.02 0.02 0.04 0.04 0.01 0.00 0.00 0.01 0.05 0.06 0.06 0.07 0.02 0.03 0.07 0.03 0.04 0.01 0.00 0.00 0.03 0.03 0.03 0.02 0.07 0.07 0.07 0.06 0.08 0.10 0.09 0.07 0.05 0.01 0.02 0.02 0.02 0.01 0.01 0.02 0.01 0.00 0.00 0.00 0.00 0.00 0.00 0.00 0.00
0.00 0.00 0.01 0.01 0.02 0.04 0.02 0.02 0.01 0.00 0.00 0.00 0.02 0.05 0.05 0.05 0.08 0.08 0.08 0.05 0.05 0.07 0.07 0.05 0.07 0.13 0.11 0.10 0.10 0.09 0.06 0.04 0.06 0.09 0.06 0.00 0.01 0.01 0.00 0.01 0.00 0.00 0.00 0.00 0.00 0.00 0.00 0.00 0.00 0.00 0.00 0.00 0.00 0.00
0.00 0.00 0.02 0.04 0.02 0.03 0.03 0.01 0.01 0.01 0.02 0.03 0.05 0.06 0.10 0.11 0.11 0.07 0.04 0.04 0.08 0.06 0.07 0.08 0.07 0.06 0.02 0.01 0.03 0.04 0.02 0.01 0.02 0.07 0.05 0.01 0.00 0.00 0.00 0.01 0.00 0.00 0.00 0.00 0.00 0.00 0.00 0.00 0.00 0.00 0.00 0.00 0.00 0.00
0.00 0.00 0.00 0.01 0.01 0.01 0.01 0.01 0.00 0.01 0.01 0.04 0.06 0.08 0.11 0.12 0.09 0.07 0.06 0.05 0.09 0.07 0.08 0.06 0.04 0.01 0.00 0.00 0.01 0.00 0.01 0.00 0.01 0.02 0.02 0.02 0.00 0.00 0.00 0.00 0.00 0.00 0.00 0.00 0.00 0.00 0.00 0.00 0.00 0.00 0.00 0.00 0.00 0.00
0.00 0.00 0.00 0.01 0.01 0.00 0.00 0.00 0.00 0.00 0.01 0.04 0.08 0.07 0.13 0.11 0.07 0.04 0.03 0.03 0.04 0.10 0.07 0.01 0.01 0.02 0.01 0.02 0.04 0.02 0.01 0.00 0.00 0.00 0.00 0.00 0.00 0.00 0.00 0.00 0.00 0.00 0.00 0.00 0.00 0.00 0.00 0.00 0.00 0.00 0.00 0.00 0.00 0.00
0.01 0.00 0.00 0.00 0.00 0.00 0.00 0.00 0.00 0.00 0.02 0.08 0.10 0.07 0.09 0.06 0.03 0.01 0.02 0.01 0.04 0.04 0.00 0.00 0.00 0.00 0.00 0.00 0.00 0.00 0.00 0.00 0.00 0.00 0.00 0.00 0.00 0.00 0.00 0.00 0.00 0.00 0.00 0.00 0.00 0.00 0.00 0.00 0.00 0.00 0.00 0.00 0.00 0.00
0.00 0.00 0.00 0.00 0.00 0.00 0.01 0.02 0.07 0.09 0.09 0.10 0.06 0.03 0.03 0.02 0.01 0.00 0.00 0.00 0.00 0.00 0.00 0.00 0.00 0.00 0.00 0.00 0.00 0.00 0.00 0.00 0.00 0.00 0.00 0.00 0.00 0.00 0.00 0.00 0.00 0.00 0.00 0.00 0.00 0.00 0.00 0.00 0.00 0.00 0.00 0.00 0.00 0.00
0.00 0.00 0.00 0.00 0.01 0.01 0.04 0.10 0.09 0.06 0.06 0.06 0.05 0.02 0.01 0.00 0.00 0.00 0.00 0.00 0.00 0.00 0.00 0.00 0.00 0.00 0.00 0.00 0.00 0.00 0.00 0.00 0.00 0.00 0.00 0.00 0.00 0.00 0.00 0.00 0.00 0.00 0.00 0.00 0.00 0.00 0.00 0.00 0.00 0.00 0.00 0.00 0.00 0.00
MSLP
1019.78 1019.48 1019.35 1019.06 1018.73 1018.37 1018.08 1017.86 1017.67 1017.60 1017.66 1017.69 1017.65 1017.70 1017.66 1017.62 1017.42 1017.36 1016.06 1015.15 1015.27 1014.27 1012.03 1010.61 1009.85 1009.63 1008.65 1007.93 1007.19 1005.94 1004.66 1003.99 1003.45 1003.96 1004.46 1004.68 1004.95 1004.93 1005.13 1005.32 1005.52 1006.00 1006.50 1007.02 1007.09 1007.09 1007.17 1006.31 1006.19 1006.66 1007.28 1007.84 1009.70 1010.73
1019.48 1019.22 1019.05 1018.92 1018.65 1018.38 1018.08 1017.73 1017.58 1017.59 1017.62 1017.61 1017.58 1017.57 1017.55 1017.45 1017.29 1017.38 1016.27 1015.22 1015.13 1014.90 1012.48 1010.75 1009.93 1009.23 1009.01 1008.38 1008.15 1007.23 1005.81 1005.00 1004.37 1004.56 1004.64 1004.90 1005.40 1005.66 1006.43 1006.58 1005.85 1006.06 1006.16 1006.61 1007.01 1007.04 1006.56 1006.13 1006.47 1006.64 1006.89 1007.78 1008.49 1009.44
1019.25 1019.04 1018.88 1018.73 1018.56 1018.31 1018.10 1017.68 1017.46 1017.53 1017.49 1017.48 1017.50 1017.52 1017.42 1017.21 1017.26 1017.27 1016.54 1015.72 1015.17 1014.06 1011.38 1009.45 1007.45 1006.38 1006.92 1007.11 1007.43 1007.45 1005.76 1005.22 1005.58 1004.33 1005.09 1004.99 1005.79 1006.17 1007.13 1007.77 1007.39 1006.58 1006.24 1006.89 1007.07 1007.34 1006.90 1006.52 1006.54 1006.63 1006.70 1007.83 1008.76 1009.04
1019.01 1018.86 1018.63 1018.54 1018.43 1018.18 1018.02 1017.71 1017.50 1017.49 1017.49 1017.40 1017.34 1017.40 1017.21 1017.15 1017.10 1016.99 1016.53 1015.67 1015.63 1014.90 1013.18 1008.35 1006.87 1006.02 1005.30 1005.35 1005.96 1006.06 1006.08 1005.98 1005.76 1005.11 1005.16 1005.05 1005.97 1006.15 1007.29 1008.08 1008.40 1007.63 1007.22 1007.12 1007.41 1007.30 1006.92 1007.18 1006.81 1006.69 1007.09 1007.78 1008.36 1008.91
1018.93 1018.68 1018.40 1018.22 1018.18 1018.05 1017.85 1017.66 1017.34 1017.29 1017.34 1017.23 1017.21 1017.15 1017.09 1016.91 1016.81 1016.57 1016.06 1015.34 1015.27 1015.51 1013.82 1010.52 1007.99 1004.93 1003.97 1004.14 1004.60 1005.29 1005.81 1006.28 1005.98 1005.78 1005.15 1005.28 1005.50 1006.34 1007.06 1007.64 1008.66 1007.57 1007.38 1007.44 1007.51 1007.76 1007.76 1007.50 1006.95 1006.78 1007.13 1007.69 1008.31 1009.07
1018.68 1018.46 1018.26 1017.93 1017.88 1017.70 1017.54 1017.45 1017.13 1017.07 1017.18 1017.07 1016.98 1016.95 1016.85 1016.79 1016.67 1016.30 1015.52 1014.68 1014.77 1014.96 1014.63 1011.63 1006.93 1004.61 1003.17 1002.77 1003.62 1004.54 1005.18 1005.97 1005.89 1005.57 1005.20 1005.03 1005.39 1005.85 1007.17 1007.43 1007.34 1007.08 1006.84 1006.83 1007.22 1007.71 1007.65 1007.60 1007.46 1007.27 1007.04 1007.42 1008.04 1008.91
1018.38 1018.16 1017.91 1017.69 1017.59 1017.38 1017.22 1017.15 1017.00 1016.95 1017.00 1017.12 1016.91 1016.77 1016.75 1016.72 1016.53 1016.37 1016.03 1015.66 1015.43 1015.11 1014.64 1011.84 1007.77 1004.08 1003.06 1002.92 1003.19 1003.81 1004.30 1004.93 1005.23 1005.73 1005.55 1005.52 1006.24 1006.19 1006.82 1007.24 1007.05 1006.82 1006.62 1006.30 1007.09 1007.34 1007.48 1006.86 1007.17 1006.87 1006.73 1006.98 1007.63 1008.49
1017.95 1017.83 1017.52 1017.31 1017.17 1017.11 1016.95 1016.88 1016.82 1016.74 1016.74 1016.71 1016.62 1016.42 1016.37 1016.29 1016.42 1015.94 1014.56 1014.89 1015.25 1015.06 1014.48 1012.06 1007.87 1004.89 1004.52 1003.46 1003.33 1003.38 1004.00 1004.54 1004.77 1005.35 1005.24 1005.86 1006.80 1006.80 1006.94 1006.55 1006.53 1006.28 1005.76 1005.65 1006.36 1006.25 1006.46 1006.00 1006.69 1006.71 1006.62 1006.92 1007.59 1008.44
1017.58 1017.38 1017.23 1017.02 1016.85 1016.90 1016.75 1016.57 1016.60 1016.56 1016.54 1016.52 1016.35 1016.26 1016.27 1016.11 1015.56 1014.73 1014.22 1014.31 1014.72 1015.06 1013.71 1011.58 1008.58 1007.03 1005.96 1004.77 1003.50 1003.56 1003.81 1004.67 1004.73 1005.02 1005.26 1005.92 1006.93 1007.13 1006.73 1006.52 1006.32 1006.22 1005.70 1005.43 1005.29 1005.26 1005.36 1005.91 1005.99 1005.99 1006.29 1006.75 1007.40 1008.12
1017.28 1017.07 1016.94 1016.78 1016.68 1016.66 1016.60 1016.55 1016.38 1016.46 1016.54 1016.52 1016.54 1016.18 1015.42 1014.80 1014.50 1014.75 1014.61 1014.72 1014.62 1013.74 1013.17 1010.93 1008.43 1007.13 1006.50 1005.78 1004.60 1004.12 1004.02 1004.38 1004.44 1004.43 1004.66 1004.90 1005.69 1005.35 1005.41 1005.35 1005.32 1005.38 1004.91 1004.76 1004.87 1005.10 1005.04 1005.30 1005.66 1005.66 1005.98 1006.40 1006.90 1007.63
1017.01 1016.78 1016.66 1016.47 1016.53 1016.50 1016.46 1016.43 1016.26 1016.45 1016.63 1016.42 1015.85 1015.24 1015.00 1014.83 1014.83 1014.30 1013.48 1013.13 1012.32 1011.13 1009.63 1007.75 1006.95 1006.72 1006.67 1006.57 1005.67 1005.68 1005.34 1004.39 1004.37 1004.65 1004.51 1004.81 1004.84 1004.73 1004.49 1004.45 1003.74 1003.99 1004.46 1004.15 1004.17 1004.20 1004.33 1004.66 1005.14 1005.49 1005.78 1006.03 1006.52 1007.11
1016.73 1016.44 1016.40 1016.27 1016.32 1016.28 1016.27 1016.28 1016.27 1016.47 1016.25 1016.19 1016.08 1015.19 1015.10 1014.78 1014.18 1013.30 1011.78 1010.42 1009.47 1007.46 1005.42 1004.84 1004.65 1005.57 1007.11 1007.23 1007.32 1006.62 1006.19 1005.63 1005.28 1005.25 1004.74 1004.06 1003.66 1003.17 1003.31 1003.41 1003.45 1003.46 1003.67 1003.65 1003.57 1003.68 1003.83 1004.09 1004.51 1005.08 1005.57 1005.98 1006.25 1006.76
1016.33 1016.10 1016.09 1016.03 1016.04 1016.04 1016.13 1016.14 1016.22 1016.23 1016.05 1015.71 1015.62 1015.18 1014.51 1013.90 1012.89 1011.36 1009.43 1007.94 1006.71 1004.86 1003.66 1003.21 1003.58 1004.52 1006.73 1007.76 1008.79 1008.09 1006.88 1006.44 1006.06 1005.64 1004.70 1003.91 1003.14 1002.58 1002.15 1001.91 1002.20 1002.63 1003.03 1003.28 1003.26 1003.36 1003.65 1004.03 1004.41 1004.87 1005.46 1005.66 1006.06 1006.73
1016.04 1015.80 1015.78 1015.73 1015.73 1015.83 1015.94 1015.98 1016.15 1016.24 1016.38 1015.71 1015.13 1014.38 1013.53 1012.29 1010.71 1008.89 1008.01 1007.85 1006.78 1005.35 1004.08 1003.06 1002.78 1003.30 1003.88 1007.18 1007.85 1007.41 1006.94 1006.58 1005.77 1005.13 1004.24 1003.50 1003.00 1002.06 1001.84 1001.61 1001.90 1002.39 1002.58 1002.87 1003.12 1003.26 1003.63 1004.17 1004.60 1004.92 1005.33 1005.71 1006.16 1006.85
1015.68 1015.49 1015.43 1015.34 1015.37 1015.60 1015.79 1015.93 1016.10 1016.12 1015.81 1015.29 1014.49 1013.06 1011.65 1010.27 1009.05 1008.42 1007.98 1007.59 1006.57 1005.80 1004.97 1003.63 1003.03 1003.39 1004.11 1004.57 1005.21 1006.19 1006.36 1005.65 1005.33 1004.46 1004.32 1003.86 1003.49 1002.75 1002.17 1001.89 1001.91 1002.01 1002.27 1002.57 1002.92 1003.28 1003.62 1004.02 1004.54 1005.02 1005.45 1005.86 1006.35 1006.98
1015.34 1015.10 1014.61 1014.45 1014.81 1015.26 1015.62 1015.95 1016.08 1015.85 1015.14 1014.65 1013.26 1011.62 1009.97 1009.27 1008.75 1008.40 1008.12 1007.72 1007.19 1006.19 1004.18 1003.95 1004.21 1004.22 1004.51 1004.86 1005.15 1004.44 1004.47 1004.20 1004.51 1004.39 1004.47 1004.52 1003.76 1003.26 1002.92 1002.36 1002.00 1001.98 1002.16 1002.44 1002.69 1002.99 1003.43 1004.04 1004.60 1005.12 1005.66 1006.02 1006.52 1007.05
1015.23 1014.51 1014.03 1014.06 1014.49 1015.03 1015.51 1015.78 1015.58 1015.05 1014.09 1012.92 1011.19 1009.88 1009.27 1008.57 1008.33 1008.18 1008.12 1008.17 1007.82 1006.69 1004.91 1004.73 1004.71 1005.06 1004.64 1004.79 1004.50 1003.69 1003.59 1003.82 1004.20 1004.52 1004.65 1004.44 1004.36 1003.97 1003.48 1003.13 1002.20 1001.93 1002.26 1002.38 1002.69 1002.96 1003.42 1003.89 1004.46 1005.12 1006.04 1006.27 1006.67 1007.10
1014.87 1014.49 1014.29 1014.44 1014.78 1015.07 1015.50 1015.54 1014.54 1013.47 1012.38 1010.85 1009.51 1008.30 1007.82 1007.84 1007.93 1007.82 1007.66 1007.82 1007.57 1006.13 1005.62 1005.18 1005.44 1005.02 1004.40 1004.38 1003.86 1004.55 1004.24 1004.12 1004.37 1004.62 1004.63 1004.77 1004.49 1004.40 1003.95 1003.71 1002.45 1002.31 1002.34 1002.55 1002.79 1003.20 1003.63 1004.14 1004.74 1005.35 1005.71 1006.21 1006.77 1007.22
1014.43 1014.54 1014.48 1014.52 1014.62 1014.58 1014.67 1014.55 1014.03 1012.45 1010.62 1009.20 1008.03 1007.29 1006.72 1006.51 1006.62 1006.57 1006.65 1006.61 1006.33 1005.67 1005.62 1005.47 1005.16 1004.62 1004.66 1004.94 1004.99 1005.05 1005.27 1005.50 1006.00 1005.98 1005.69 1005.34 1005.24 1004.87 1004.41 1004.03 1003.14 1002.64 1002.74 1002.90 1003.16 1003.55 1003.89 1004.29 1004.76 1005.21 1005.66 1006.13 1006.65 1007.15
1014.49 1014.40 1014.30 1014.37 1014.83 1014.30 1013.74 1013.04 1012.62 1011.35 1009.17 1007.66 1006.99 1006.49 1006.03 1005.71 1005.57 1005.71 1005.62 1005.42 1005.28 1005.37 1005.27 1005.07 1004.55 1003.80 1004.28 1005.15 1005.01 1005.19 1005.43 1005.37 1005.62 1006.27 1006.30 1005.76 1005.69 1004.99 1004.89 1004.53 1003.85 1003.05 1003.16 1003.34 1003.63 1003.96 1004.33 1004.61 1004.75 1004.94 1005.23 1005.84 1006.27 1006.59
1014.29 1014.00 1014.23 1014.41 1014.50 1014.30 1013.64 1012.18 1011.08 1009.70 1008.40 1007.48 1006.36 1006.02 1005.62 1005.38 1005.01 1004.88 1004.65 1004.47 1004.50 1004.39 1004.28 1004.15 1004.15 1004.02 1004.12 1004.51 1004.57 1004.80 1005.05 1005.34 1005.82 1005.94 1006.73 1006.50 1005.66 1005.13 1005.04 1004.41 1004.29 1003.43 1003.44 1003.77 1004.11 1004.38 1004.54 1004.55 1004.67 1004.97 1005.34 1005.46 1005.25 1006.23
1013.53 1013.78 1014.01 1014.34 1013.96 1013.67 1012.74 1011.06 1010.19 1009.00 1008.44 1007.03 1006.41 1006.15 1005.54 1004.99 1004.69 1004.57 1004.34 1003.98 1003.68 1003.49 1003.40 1003.53 1003.58 1003.73 1003.99 1004.36 1004.49 1004.60 1004.74 1005.13 1005.86 1006.39 1005.78 1006.47 1006.71 1006.34 1006.18 1005.73 1005.31 1004.75 1004.41 1004.62 1005.13 1005.66 1005.67 1005.61 1004.98 1005.56 1005.96 1006.01 1006.93 1007.49
1013.77 1013.71 1013.65 1013.54 1013.39 1012.66 1011.11 1009.70 1009.29 1008.32 1007.44 1006.43 1005.95 1005.50 1004.79 1004.38 1003.98 1003.78 1003.76 1003.13 1002.82 1002.67 1002.75 1002.86 1003.07 1003.22 1003.45 1003.60 1003.97 1004.49 1004.67 1004.96 1005.34 1005.53 1005.89 1005.85 1005.59 1005.72 1005.71 1005.65 1005.34 1005.85 1006.77 1005.97 1005.19 1005.60 1006.15 1007.05 1006.64 1005.82 1006.58 1006.25 1007.20 1007.14
1013.81 1013.52 1012.84 1012.14 1012.04 1010.94 1009.38 1008.52 1008.08 1007.32 1006.68 1006.15 1005.61 1004.85 1004.20 1003.97 1003.99 1003.84 1003.03 1002.41 1002.23 1002.00 1002.14 1002.46 1002.62 1002.89 1002.91 1003.06 1003.40 1003.86 1004.25 1004.53 1004.80 1005.00 1005.09 1005.00 1005.85 1006.02 1006.37 1006.14 1005.46 1005.97 1007.20 1006.97 1006.17 1005.68 1005.61 1007.14 1007.14 1006.49 1006.60 1007.06 1007.10 1007.26
1013.16 1012.70 1012.30 1011.28 1010.41 1009.66 1008.39 1007.42 1006.86 1006.85 1006.21 1005.74 1005.40 1004.65 1004.11 1003.99 1003.76 1003.26 1002.67 1002.40 1002.23 1002.17 1002.17 1002.38 1002.55 1002.76 1002.84 1002.90 1003.23 1003.43 1003.58 1003.90 1004.31 1004.82 1005.26 1005.44 1006.15 1006.40 1006.69 1007.04 1007.31 1007.46 1006.55 1006.60 1006.62 1006.43 1006.32 1006.35 1006.39 1006.60 1007.00 1007.40 1007.51 1007.60
1012.10 1011.06 1010.62 1009.18 1008.69 1008.20 1007.38 1006.98 1007.05 1007.06 1006.80 1006.18 1005.13 1004.51 1004.18 1003.94 1003.51 1003.41 1002.97 1002.35 1002.37 1002.34 1002.27 1002.38 1002.42 1002.44 1002.61 1002.73 1002.95 1003.26 1003.35 1003.56 1004.12 1004.73 1005.29 1005.53 1005.88 1005.95 1006.34 1007.06 1007.55 1006.87 1005.82 1005.56 1005.67 1005.78 1006.12 1006.52 1006.85 1006.91 1007.23 1007.48 1007.61 1007.62
1010.61 1009.08 1008.32 1007.79 1007.55 1007.39 1007.08 1006.97 1006.97 1007.00 1006.56 1005.96 1005.29 1004.89 1004.07 1003.50 1002.91 1003.15 1002.72 1002.54 1002.39 1002.23 1002.35 1002.40 1002.43 1002.36 1002.29 1002.47 1002.74 1002.97 1003.09 1003.35 1003.81 1004.37 1004.79 1005.22 1005.68 1006.01 1006.17 1006.24 1006.69 1006.20 1005.49 1005.47 1005.60 1005.94 1006.40 1006.68 1006.79 1007.11 1007.25 1007.47 1007.49 1007.73
1008.80 1007.68 1007.21 1007.10 1006.96 1006.89 1006.81 1006.62 1006.50 1006.07 1005.93 1005.68 1005.36 1004.45 1003.64 1003.13 1003.14 1002.95 1002.71 1002.45 1002.53 1002.63 1002.58 1002.33 1002.11 1002.02 1002.06 1002.59 1003.02 1003.11 1003.20 1003.59 1004.04 1004.62 1005.18 1005.50 1005.49 1005.51 1005.70 1005.95 1006.19 1005.49 1005.50 1005.75 1005.86 1006.13 1006.47 1006.78 1006.97 1007.13 1007.28 1007.45 1007.60 1007.66
1007.60 1007.05 1006.80 1006.71 1006.69 1006.55 1006.17 1005.86 1005.55 1005.59 1006.13 1006.17 1005.26 1004.60 1004.13 1003.53 1003.35 1003.00 1002.65 1002.34 1002.53 1003.09 1003.15 1002.97 1002.75 1002.69 1002.98 1003.34 1003.59 1003.68 1003.69 1003.85 1004.29 1004.71 1004.99 1005.34 1005.50 1005.47 1005.42 1005.58 1005.65 1005.45 1005.67 1006.14 1006.45 1006.52 1006.58 1007.10 1007.30 1007.44 1007.52 1007.71 1007.80 1008.04
1006.50 1006.43 1006.58 1006.47 1006.29 1005.94 1005.45 1005.15 1004.78 1004.74 1005.29 1005.57 1005.44 1004.77 1003.91 1003.65 1003.39 1002.83 1002.84 1002.88 1003.35 1003.41 1002.77 1002.71 1003.03 1003.23 1003.02 1003.20 1003.51 1004.00 1004.30 1004.25 1003.92 1003.90 1004.19 1004.30 1004.38 1004.49 1004.77 1005.04 1005.18 1005.45 1005.80 1006.18 1006.69 1006.99 1006.99 1007.16 1007.43 1007.38 1007.60 1008.02 1008.26 1008.42
1006.20 1006.59 1006.78 1006.76 1006.41 1005.77 1005.32 1004.95 1004.57 1004.32 1004.41 1004.47 1004.44 1004.28 1003.96 1003.81 1003.84 1003.31 1003.06 1003.08 1003.38 1003.60 1002.75 1002.72 1002.62 1002.68 1002.83 1003.07 1003.21 1003.63 1004.10 1004.68 1004.77 1003.99 1003.59 1003.75 1003.91 1004.19 1004.46 1004.70 1004.91 1005.20 1005.47 1005.79 1006.16 1006.54 1006.79 1007.00 1007.20 1007.44 1008.20 1008.46 1008.60 1008.66
1006.13 1006.64 1006.77 1006.52 1005.89 1004.88 1004.50 1004.43 1004.26 1004.15 1004.07 1004.23 1004.06 1003.92 1003.67 1003.35 1002.84 1002.41 1002.19 1001.81 1001.67 1001.86 1001.76 1001.96 1002.20 1002.28 1002.48 1002.93 1003.30 1003.85 1003.90 1004.18 1004.36 1004.39 1004.11 1004.17 1004.15 1003.87 1003.93 1004.06 1003.94 1004.44 1005.00 1005.71 1006.03 1006.34 1006.53 1006.60 1007.01 1007.57 1007.92 1008.15 1008.34 1008.57
1005.49 1005.93 1006.22 1006.06 1005.29 1004.48 1004.42 1004.27 1004.16 1004.11 1004.25 1004.19 1004.07 1003.60 1003.03 1003.00 1002.77 1002.48 1001.77 1001.45 1001.65 1001.59 1001.80 1002.16 1002.52 1002.93 1003.28 1003.63 1004.04 1004.52 1004.55 1004.99 1005.26 1005.22 1005.04 1004.84 1004.80 1004.77 1004.79 1004.68 1004.41 1004.58 1004.98 1005.14 1005.71 1006.18 1006.53 1006.95 1007.33 1007.66 1007.98 1008.28 1008.68 1009.01
Thickness
5571 5569 5566 5565 5564 5563 5561 5559 5558 5557 5554 5552 5552 5551 5552 5554 5556 5557 5569 5578 5578 5589 5610 5625 5638 5636 5648 5658 5660 5681 5694 5702 5708 5693 5693 5694 5693 5703 5700 5711 5706 5690 5680 5679 5684 5683 5666 5720 5720 5699 5707 5714 5697 5690
5562 5560 5558 5555 5553 5551 5550 5549 5547 5545 5544 5543 5542 5542 5543 5544 5547 5546 5557 5567 5572 5577 5602 5618 5629 5639 5642 5650 5654 5663 5680 5688 5696 5692 5696 5695 5687 5697 5688 5675 5709 5687 5698 5687 5691 5680 5709 5723 5714 5723 5723 5712 5703 5696
5552 5551 5549 5546 5543 5541 5538 5537 5537 5535 5536 5535 5534 5534 5534 5536 5537 5538 5547 5556 5564 5578 5605 5623 5639 5651 5654 5658 5660 5648 5672 5684 5683 5702 5689 5691 5679 5691 5670 5670 5685 5702 5709 5687 5693 5700 5707 5717 5716 5720 5722 5705 5698 5700
5544 5542 5541 5538 5534 5532 5530 5529 5528 5528 5528 5527 5528 5527 5528 5528 5530 5533 5541 5552 5556 5566 5577 5621 5648 5651 5665 5667 5663 5668 5663 5670 5683 5689 5682 5682 5676 5694 5670 5672 5668 5685 5693 5692 5689 5701 5709 5704 5707 5713 5713 5704 5701 5699
5535 5534 5534 5532 5527 5525 5523 5522 5523 5522 5520 5519 5520 5520 5522 5523 5526 5532 5539 5550 5554 5556 5570 5595 5624 5653 5668 5668 5666 5663 5659 5658 5667 5668 5676 5676 5685 5679 5676 5673 5662 5685 5687 5678 5674 5688 5685 5695 5704 5710 5703 5697 5694 5688
5527 5526 5525 5526 5522 5520 5518 5518 5519 5518 5516 5516 5516 5516 5517 5519 5522 5529 5541 5549 5552 5556 5558 5581 5631 5649 5668 5675 5666 5661 5661 5653 5665 5667 5674 5684 5688 5680 5663 5661 5682 5688 5693 5695 5687 5687 5686 5690 5694 5701 5701 5696 5693 5685
5520 5520 5520 5519 5516 5514 5514 5513 5514 5514 5511 5508 5509 5511 5512 5513 5517 5522 5535 5539 5545 5552 5556 5580 5616 5654 5665 5666 5665 5661 5665 5660 5664 5662 5664 5671 5670 5673 5667 5656 5680 5684 5686 5698 5686 5683 5682 5695 5688 5701 5704 5699 5692 5687
5514 5513 5514 5514 5512 5509 5509 5509 5509 5509 5507 5504 5503 5507 5510 5513 5515 5523 5538 5540 5542 5549 5555 5575 5611 5637 5646 5650 5649 5664 5655 5657 5660 5657 5666 5660 5655 5659 5655 5679 5682 5688 5697 5702 5689 5692 5688 5699 5692 5690 5696 5695 5687 5680
5509 5508 5508 5509 5508 5504 5504 5505 5505 5504 5503 5502 5501 5503 5508 5511 5518 5531 5538 5542 5543 5546 5558 5577 5600 5607 5629 5638 5654 5655 5657 5639 5660 5651 5653 5653 5637 5625 5661 5670 5674 5679 5690 5693 5699 5701 5703 5695 5695 5697 5696 5693 5686 5681
5503 5503 5502 5503 5502 5500 5500 5500 5502 5501 5501 5501 5502 5506 5515 5521 5523 5527 5533 5536 5539 5551 5558 5574 5604 5609 5622 5629 5637 5645 5651 5643 5638 5651 5661 5649 5644 5667 5673 5677 5679 5683 5691 5696 5690 5689 5696 5697 5697 5699 5699 5697 5693 5687
5497 5497 5496 5498 5497 5496 5495 5495 5498 5498 5498 5503 5510 5517 5517 5518 5522 5531 5543 5548 5559 5571 5587 5601 5612 5610 5621 5617 5626 5629 5626 5644 5637 5643 5643 5642 5648 5667 5677 5681 5692 5695 5693 5697 5700 5702 5704 5704 5700 5700 5700 5701 5697 5692
5490 5492 5491 5493 5492 5492 5492 5492 5493 5493 5499 5501 5504 5513 5515 5520 5528 5539 5556 5572 5579 5596 5621 5621 5627 5623 5609 5612 5611 5623 5622 5633 5631 5640 5644 5646 5665 5678 5681 5686 5690 5693 5694 5697 5704 5706 5709 5710 5707 5703 5701 5698 5698 5696
5485 5487 5487 5488 5489 5489 5488 5489 5489 5491 5495 5501 5505 5510 5520 5528 5532 5555 5576 5590 5600 5623 5634 5637 5627 5628 5608 5599 5594 5606 5614 5616 5633 5631 5641 5654 5670 5683 5690 5696 5697 5697 5697 5699 5703 5707 5708 5707 5708 5705 5700 5701 5699 5694
5480 5483 5483 5484 5485 5484 5484 5485 5486 5488 5489 5499 5508 5508 5526 5538 5555 5576 5583 5581 5597 5611 5626 5635 5636 5633 5638 5603 5601 5605 5616 5621 5625 5628 5643 5664 5667 5683 5689 5695 5693 5692 5695 5697 5700 5704 5704 5701 5701 5703 5701 5700 5695 5689
5476 5479 5480 5482 5483 5481 5480 5481 5482 5484 5490 5497 5509 5519 5538 5556 5571 5579 5587 5586 5595 5604 5612 5625 5633 5633 5627 5630 5630 5617 5612 5619 5624 5638 5647 5655 5663 5678 5684 5689 5690 5693 5695 5696 5698 5699 5701 5700 5697 5696 5698 5695 5692 5688
5473 5477 5481 5484 5481 5479 5477 5476 5477 5482 5491 5498 5516 5532 5552 5559 5566 5572 5576 5581 5586 5598 5622 5624 5613 5614 5617 5616 5618 5629 5630 5629 5632 5642 5648 5655 5663 5670 5675 5684 5688 5691 5693 5695 5697 5699 5698 5695 5692 5691 5692 5690 5688 5684
5467 5477 5482 5483 5480 5477 5474 5474 5478 5485 5497 5511 5527 5544 5552 5562 5564 5567 5572 5574 5581 5591 5604 5606 5604 5602 5620 5613 5616 5636 5633 5635 5640 5641 5646 5652 5652 5658 5664 5671 5685 5689 5689 5692 5693 5695 5694 5694 5692 5688 5680 5682 5682 5679
5467 5471 5475 5476 5474 5474 5472 5473 5484 5496 5508 5525 5537 5551 5558 5560 5561 5569 5572 5572 5576 5592 5595 5599 5599 5604 5613 5617 5625 5617 5629 5637 5641 5640 5643 5643 5648 5649 5657 5659 5678 5681 5684 5687 5688 5688 5687 5685 5682 5678 5679 5679 5676 5673
5465 5467 5470 5471 5473 5476 5478 5480 5485 5499 5519 5534 5547 5556 5565 5570 5573 5577 5578 5581 5587 5597 5596 5595 5598 5607 5608 5611 5614 5615 5615 5615 5619 5623 5628 5634 5636 5642 5648 5652 5667 5675 5675 5678 5679 5678 5679 5680 5678 5677 5675 5673 5668 5667
5461 5465 5468 5469 5468 5477 5485 5495 5496 5508 5527 5544 5552 5557 5566 5572 5579 5580 5584 5588 5590 5590 5591 5594 5602 5615 5612 5604 5612 5613 5614 5619 5621 5618 5619 5629 5632 5639 5640 5645 5658 5668 5668 5670 5671 5671 5670 5670 5673 5673 5672 5668 5665 5663
5460 5465 5466 5467 5469 5473 5480 5498 5507 5520 5533 5539 5555 5558 5564 5571 5577 5581 5586 5595 5593 5593 5595 5604 5606 5611 5614 5612 5618 5619 5616 5616 5612 5615 5612 5616 5628 5634 5639 5649 5652 5660 5661 5660 5661 5661 5662 5663 5665 5662 5664 5666 5669 5658
5464 5464 5466 5465 5472 5477 5487 5506 5513 5526 5530 5544 5550 5554 5560 5566 5572 5578 5588 5590 5595 5601 5604 5604 5606 5607 5608 5608 5612 5618 5618 5616 5609 5607 5614 5610 5613 5620 5627 5631 5637 5644 5646 5642 5640 5637 5644 5646 5655 5652 5648 5651 5643 5642
5459 5464 5467 5471 5476 5481 5498 5517 5519 5530 5537 5548 5555 5558 5567 5573 5580 5589 5583 5594 5600 5606 5607 5608 5608 5610 5610 5615 5615 5612 5614 5613 5610 5612 5612 5617 5625 5622 5623 5623 5629 5627 5618 5624 5635 5634 5631 5622 5629 5643 5635 5642 5633 5634
5458 5464 5474 5485 5487 5497 5519 5525 5533 5542 5549 5552 5557 5565 5574 5580 5583 5582 5590 5600 5604 5611 5609 5608 5610 5608 5611 5613 5613 5612 5611 5612 5611 5612 5613 5620 5614 5614 5612 5617 5625 5618 5609 5614 5624 5631 5634 5622 5622 5631 5630 5629 5628 5625
5464 5472 5475 5477 5504 5512 5525 5537 5545 5545 5552 5559 5562 5571 5577 5582 5582 5588 5595 5599 5604 5606 5607 5607 5606 5606 5607 5610 5610 5612 5616 5614 5611 5608 5606 5608 5604 5605 5604 5604 5603 5602 5612 5615 5618 5620 5622 5623 5625 5624 5620 5618 5616 5614
5468 5488 5487 5513 5519 5525 5536 5539 5539 5541 5545 5553 5569 5578 5582 5582 5587 5585 5594 5604 5603 5604 5605 5604 5606 5606 5607 5609 5609 5608 5610 5613 5609 5603 5603 5605 5604 5607 5602 5598 5595 5603 5615 5621 5621 5621 5620 5617 5613 5613 5610 5607 5603 5604
5483 5508 5519 5529 5530 5533 5539 5542 5545 5546 5553 5561 5571 5574 5584 5586 5589 5592 5603 5605 5605 5608 5608 5608 5608 5609 5610 5610 5610 5610 5610 5609 5606 5604 5607 5608 5605 5603 5604 5602 5599 5608 5617 5618 5617 5614 5610 5608 5607 5604 5602 5600 5598 5594
5512 5525 5527 5531 5535 5540 5540 5545 5548 5558 5566 5572 5574 5582 5587 5597 5595 5600 5602 5607 5607 5608 5609 5612 5615 5616 5616 5612 5609 5610 5610 5608 5605 5602 5601 5603 5604 5606 5607 5605 5605 5611 5613 5611 5610 5608 5605 5603 5601 5598 5595 5593 5590 5590
5522 5531 5536 5537 5541 5544 5550 5556 5562 5567 5563 5564 5575 5584 5587 5596 5599 5602 5606 5611 5609 5605 5604 5605 5611 5613 5611 5608 5607 5608 5609 5609 5605 5601 5601 5599 5602 5605 5609 5608 5608 5611 5610 5607 5600 5601 5602 5599 5596 5592 5590 5585 5582 5577
5536 5541 5541 5545 5547 5552 5561 5568 5573 5577 5571 5572 5575 5583 5594 5597 5599 5608 5608 5608 5602 5602 5610 5610 5610 5608 5608 5610 5609 5608 5608 5611 5615 5614 5609 5608 5610 5614 5613 5611 5609 5608 5605 5601 5597 5595 5593 5591 5587 5585 5580 5573 5567 5563
5544 5543 5542 5543 5547 5558 5565 5574 5580 5585 5586 5583 5587 5589 5593 5596 5596 5601 5606 5607 5605 5605 5615 5614 5615 5617 5615 5615 5615 5613 5611 5611 5611 5617 5620 5621 5619 5616 5614 5613 5612 5610 5607 5604 5601 5595 5590 5586 5582 5576 5566 5563 5558 5555
5545 5543 5544 5548 5558 5574 5580 5578 5583 5586 5589 5588 5591 5594 5598 5600 5603 5611 5616 5620 5622 5621 5622 5623 5619 5619 5623 5621 5619 5616 5616 5615 5613 5613 5616 5616 5616 5619 5619 5618 5619 5613 5607 5600 5595 5592 5587 5582 5574 5566 5560 5556 5552 5547
5557 5555 5554 5559 5570 5579 5581 5583 5585 5588 5587 5590 5591 5597 5603 5602 5600 5608 5621 5625 5622 5623 5622 5621 5621 5619 5617 5615 5612 5609 5610 5607 5602 5601 5604 5606 5607 5609 5610 5610 5611 5608 5602 5599 5591 5586 5579 5573 5566 5560 5554 5549 5542 5535